Philadelphia, PA

3:27 PM EST on December 15, 2019 (GMT -0500)
Philadelphia International

Weather History for KPHL - June, 2019

Change the Weather History Date:

Monday, June 3, 2019

  Actual Average Record
Temperature  
Mean Temperature 66 °F 70 °F  
Max Temperature 73 °F 79 °F 97 °F (1919)
Min Temperature 59 °F 60 °F 48 °F (1966)
Degree Days  
Heating Degree Days 0 1  
Month to date heating degree days 0 3  
Since 1 June heating degree days 0 3  
Since 1 July heating degree days 4359 4605  
Cooling Degree Days 1 6  
Month to date cooling degree days 19 16  
Year to date cooling degree days 169 107  
Since 1 June cooling degree days 19 16  
Growing Degree Days 16 (Base 50)    
Moisture  
Dew Point 41 °F    
Average Humidity 46    
Maximum Humidity 69    
Minimum Humidity 22    
Precipitation  
Precipitation 0.00 in 0.12 in 1.60 in (1879)
Month to date precipitation 0.38 0.36  
Year to date precipitation 19.66 17.10  
Snow  
Snow 0.00 in 0.00 in 0.00 in ()
Month to date snowfall 0.0 0.0  
Since 1 June snowfall 0.0 0.0  
Since 1 July snowfall 17.1 22.4  
Snow Depth 0.00 in    
Sea Level Pressure  
Sea Level Pressure 29.94 in    
Wind  
Wind Speed 11 mph (WNW)    
Max Wind Speed 23 mph    
Max Gust Speed 30 mph    
Visibility 10 miles    
Events      
T = Trace of Precipitation, MM = Missing Value Source: NWS Daily Summary

Daily Weather History Graph

Daily Weather History Graph

Search for Another Location

Airport or City:

Astronomy

Jun. 03, 2019 Rise Set
Actual Time 5:33 AM EDT 8:24 PM EDT
Civil Twilight 5:01 AM EDT 8:56 PM EDT
Nautical Twilight 4:21 AM EDT 9:37 PM EDT
Astronomical Twilight 3:34 AM EDT 10:23 PM EDT
Moon 5:52 AM EDT (6/3) 8:46 PM EDT (6/3)
Length of Visible Light 15h 55m
Length of Day
14h 50m
New Moon, 0% of the Moon is Illuminated
Jun 3
New Moon
Jun 10
First Quarter
Jun 17
Full
Jun 25
Last Quarter
Jul 2
New

Hourly Weather History & Observations

Time (EDT) Temp. Dew Point Humidity Pressure Visibility Wind Dir Wind Speed Gust Speed Precip Events Conditions
12:54 AM 64.0 °F 46.0 °F 52% 29.81 in 10.0 mi North 10.4 mph - N/A   Mostly Cloudy
1:54 AM 62.1 °F 46.9 °F 58% 29.82 in 10.0 mi North 6.9 mph - N/A   Mostly Cloudy
2:54 AM 62.1 °F 46.9 °F 58% 29.82 in 10.0 mi NNW 5.8 mph - N/A   Scattered Clouds
3:54 AM 62.1 °F 46.9 °F 58% 29.84 in 10.0 mi WNW 3.5 mph - N/A   Partly Cloudy
4:54 AM 62.1 °F 48.0 °F 60% 29.86 in 10.0 mi WNW 5.8 mph - N/A   Partly Cloudy
5:54 AM 60.1 °F 50.0 °F 69% 29.89 in 10.0 mi West 5.8 mph - N/A   Partly Cloudy
6:54 AM 60.1 °F 48.9 °F 67% 29.89 in 10.0 mi NW 6.9 mph - N/A   Scattered Clouds
7:54 AM 63.0 °F 46.9 °F 56% 29.91 in 10.0 mi WNW 6.9 mph - N/A   Scattered Clouds
8:54 AM 64.9 °F 45.0 °F 48% 29.94 in 10.0 mi WNW 8.1 mph - N/A   Scattered Clouds
9:54 AM 66.9 °F 43.0 °F 42% 29.92 in 10.0 mi WNW 8.1 mph - N/A   Scattered Clouds
10:54 AM 69.1 °F 44.1 °F 40% 29.94 in 10.0 mi WNW 12.7 mph 17.3 mph N/A   Scattered Clouds
11:54 AM 69.1 °F 43.0 °F 39% 29.95 in 10.0 mi NW 11.5 mph 18.4 mph N/A   Mostly Cloudy
12:54 PM 71.1 °F 43.0 °F 36% 29.94 in 10.0 mi West 20.7 mph 26.5 mph N/A   Scattered Clouds
1:54 PM 72.0 °F 36.0 °F 27% 29.94 in 10.0 mi WNW 18.4 mph 28.8 mph N/A   Scattered Clouds
2:54 PM 72.0 °F 35.1 °F 26% 29.94 in 10.0 mi WNW 13.8 mph 27.6 mph N/A   Partly Cloudy
3:54 PM 72.0 °F 33.1 °F 24% 29.94 in 10.0 mi WNW 16.1 mph 28.8 mph N/A   Partly Cloudy
4:54 PM 71.1 °F 30.9 °F 23% 29.96 in 10.0 mi NNW 15.0 mph 25.3 mph N/A   Scattered Clouds
5:54 PM 71.1 °F 35.1 °F 27% 29.97 in 10.0 mi WNW 15.0 mph 23.0 mph N/A   Scattered Clouds
6:54 PM 70.0 °F 33.1 °F 26% 29.99 in 10.0 mi NW 13.8 mph - N/A   Scattered Clouds
7:54 PM 69.1 °F 34.0 °F 27% 30.01 in 10.0 mi WNW 12.7 mph - N/A   Scattered Clouds
8:54 PM 68.0 °F 36.0 °F 31% 30.03 in 10.0 mi WNW 9.2 mph - N/A   Partly Cloudy
9:54 PM 66.0 °F 37.0 °F 34% 30.05 in 10.0 mi West 6.9 mph - N/A   Clear
10:54 PM 64.9 °F 37.9 °F 37% 30.07 in 10.0 mi WNW 9.2 mph - N/A   Partly Cloudy
11:54 PM 62.1 °F 39.0 °F 43% 30.08 in 10.0 mi West 9.2 mph - N/A   Clear